Погода в Баргузине

Погода в Баргузине : погода сейчас, прогноз погоды и архив. Всё, что Вы хотите узнать о погоде в Баргузине!

Поиск расширенной информации на нашем сайте:

Другие новости

Новости СМИ2

Главная страница сайта

Новости сайта

03.07.2017

Напоминаем, что на нашем специализированном сайте Метеоцентр.Азия вы можете получить высокодетализированные автоматические прогнозы погоды по пунктам России, СНГ и мира в авиационном формате (включающие направление и скорость ветра, видимость, явления погоды, количество и форму облачности, нижнюю и верхнюю границу облачности).

Рекомендуем: Продам сайт smssend.

Погода в Баргузине - сегодня

Время (UTC), дата Ветер
(°,м/с) 
Видим.   Явления Облачность Т
(°С)
Тd
(°С)
f(%) Тe
(°С)
Pmin
(гПа)
dP
(гПа)
Po
(мм)
O2
(г/м3)
Тmin Tmax R s Состояние
почвы
03 22.11.17 030 (СВ) 20000 м    4/0 верхняя 
[Ci fib]
-14 -21.6 53 -14  1026.6  1.2  722  308  -14.9         
06 22.11.17 080 (В) 20000 м    3/3 1000 м 
[Cu hum]
-12.5 -21.8 46 -12  1025.6  -0.6  722  306           
09 22.11.17 тихо ()   н/о    ясно 
-18.9 -22.9 71 -19  1027  -0.2  722  314           
12 22.11.17 230 (ЮЗ) н/о    ясно 
-23.5 -25.7 82 -24  1028.7  0.4  722  320    -11.5       
15 22.11.17 тихо ()   н/о    ясно 
-26.1 -28.8 78 -26  1030.1  0.6  722  324           
18 22.11.17 тихо ()   н/о    ясно 
-26.8 -29.4 79 -27  1031  0.7  723  325           
21 22.11.17 тихо ()   н/о    ясно 
-28.4 -31.4 75 -28  1031.8  0.3  723  327           
00 23.11.17 тихо ()   н/о    4/0 верхняя 
[Ci fib]
-29.3 -32.3 75 -29  1032.6  0.5  723  328  -29.6      14  равномерный
сухой снег
100% 
03 23.11.17 тихо ()   20000 м    4/0 верхняя 
[Ci fib]
-22.2 -24.8 79 -22  1031.3  0.7  724  319           
06 23.11.17 тихо ()   20000 м    8/0 верхняя 
[Ci fib]
-17.8 -22.9 64 -18  1029.3  -0.8  723  313           
09 23.11.17 тихо ()   н/о    4/0 верхняя 
[Ci fib]
-22.5 -24.8 81 -23  1030.4  0.1  723  319           
12 23.11.17 тихо ()   н/о    ясно 
-26.7 -29.5 77 -27  1031.3  -0.3  723  325    -17.5       
15 23.11.17 тихо ()   н/о    ясно 
-27.8 -30.7 76 -28  1031  -0.6  723  326           
18 23.11.17 тихо ()   н/о    ясно 
-27.2 -30 77 -27  1030.4  -0.3  722  325           
21 23.11.17 тихо ()   н/о    ясно 
-28.4 -31.4 75 -28  1030.3  -0.5  722  327           
00 24.11.17 тихо ()   н/о    3/0 верхняя 
[Ci fib]
-30.6 -33.9 73 -31  1031  -0.1  722  330  -30.6      14  равномерный
сухой снег
100% 
03 24.11.17 тихо ()   20000 м    3/0 верхняя 
[Ci fib]
-22.8 -25.5 79 -23  1028.5  -0.2  722  319  -30.7         
06 24.11.17 070 (В) 20000 м    8/0 средняя, верхняя 
[Ac trans|Ci fib]
-19.5 -23.7 69 -20  1026.1  -1.4  721  314           
09 24.11.17 тихо ()   н/о    6/0 верхняя 
[Ci fib]
-23.4 -25.8 81 -23  1026.7  -0.4  721  319           
12 24.11.17 тихо ()   н/о    4/0 верхняя 
[Ci fib]
-26.8 -29.5 78 -27  1027.4  -0.3  720  324    -19.2       
15 24.11.17 тихо ()   н/о    ясно 
-27.9 -30.8 76 -28  1027.2  -0.4  720  325           
18 24.11.17 тихо ()   н/о    ясно 
-29.3 -32.4 75 -29  1028.1  0.5  720  327           
21 24.11.17 тихо ()   н/о    ясно 
-30.1 -33.2 74 -30  1028.7  0.4  721  328           
00 25.11.17 тихо ()   н/о    ясно 
-31.3 -34.5 73 -31  1030.5  1.3  722  330  -31.3      14  равномерный
сухой снег
100% 
03 25.11.17 080 (В) 20000 м    ясно 
-25.5 -28.4 77 -26  1030.6  1.6  723  323  -31.7         
Время (UTC), дата Ветер
(°,м/с) 
Видим.   Явления Облачность Т
(°С)
Тd
(°С)
f(%) Тe
(°С)
Pmin
(гПа)
dP
(гПа)
Po
(мм)
O2
(г/м3)
Тmin Tmax R s Состояние
почвы

Для получения пояснительной информации подведите курсор к названию столбца.

ПОГОДА в Баргузине - архив

Всё, что Вы хотите узнать о погоде в Баргузине - удобно и подробно!

Выберите нужную дату (начиная с 1 января 2015* года) и нажмите кнопку "Найти".
Будут отображены архивные сводки погоды по пункту Баргузин, начиная с указанной даты.


Отображать данные в формате CSV (для использования в таблицах Excel)


Внимание! Наш архив погоды предназначен исключительно для личного некоммерческого использования в познавательных целях. Если Вам необходимы официальные справки о состоянии погоды (для производственных, юридических, коммерческих и т.п. целей), обращайтесь в органы Росгидромета.

*Примечание: данная дата относится к архиву по метеостанциям СССР (Россия, СНГ, Балтия).
Архив по метеостанциям Зарубежной Европы и Азии (кроме Китая) хранится 10 дней, по другим регионам земного шара (Китай, Африка, Америка, Австралия, Океания) - 1 день.

Баргузин - район местоположения метеостанции


Название, широта, долгота, высота метеостанции:
Баргузин 53.6°ш. 109.6°д. 489 м над ур. моря [Российская Федерация]

Дополнительная информация

В oтличие oт бoльшинства пoгoдных сайтoв мы публикуем пoдрoбную метеoинфoрмацию в детальнoм прoфессиoнальнoм фoрмате.

Характеристики температуры и влажнoсти вoздуха измеряются на высoте 2 м в тени вдали oт зданий и деревьев.
Скoрoсть ветра измеряется на высoте 10 м (на урoвне рoста челoвека скoрoсть ветра ниже в 1.5-2 раза). Если метеoстанция нахoдится в гoрoде или в лесу, тo скoрoсть ветра занижена на 2-4 м/с пo сравнению с oткрытым местoм. Скoрoсть ветра над акватoриями крупных рек и oзёр, а также на вершинах хoлмoв на 2-5 м/с выше, чем в oбычных услoвиях.
Атмoсфернoе давление в разных тoчках местнoсти мoжет значительнo oтличаться oт давления на метеoстанции, в зависимoсти oт услoвий рельефа (при пoдъёме на 10 м давление пoнижается примернo на 1 мм рт.ст.).